Regional Weather Roundup
Issued by NWS

Home | Current Version | Previous Version | Text Only | Print | Product List | Glossary On
Versions: 1 2 3 4 5 6 7 8 9 10 11 12 13 14 15 16 17 18 19 20 21 22 23 24 25 26 27 28 29 30 31 32 33 34 35 36 37 38 39 40 41 42 43 44 45 46 47 48 49 50
000
ASUS43 KOAX 230602
RWRNE

WEATHER ROUNDUP FOR NEBRASKA
NATIONAL WEATHER SERVICE OMAHA NE
100 AM CDT MON APR 23 2018

NOTES: SATELLITE DATA IS BEING USED TO AUGMENT CLOUD COVER ABOVE
       12000 FEET.
       "FAIR" INDICATES FEW OR NO CLOUDS BELOW 12,000 FEET WITH NO
       SIGNIFICANT WEATHER AND/OR OBSTRUCTIONS TO VISIBILITY.


NEZ001>004-019>022-054>056-230700-
NEBRASKA PANHANDLE

CITY           SKY/WX    TMP DP  RH WIND       PRES   REMARKS
SCOTTSBLUFF    CLEAR     42  40  92 E12       30.14R
6HR MIN TEMP:  42; 6HR MAX TEMP:  62;

ALLIANCE       CLEAR     40  37  89 S9        30.14S WCI  34
6HR MIN TEMP:  40; 6HR MAX TEMP:  59;

CHADRON        CLEAR     49  39  68 S18       30.10S
6HR MIN TEMP:  47; 6HR MAX TEMP:  67;

GORDON         FAIR      43  36  77 CALM      30.14S
6HR MIN TEMP:  42; 6HR MAX TEMP:  62;

KIMBALL        CLEAR     40  37  89 S7        30.15F WCI  35
SIDNEY         CLEAR     35  33  92 S8        30.16S WCI  29
6HR MIN TEMP:  34; 6HR MAX TEMP:  57;

$$

NEZ057>060-069>072-079>082-230700-
SOUTHWEST NEBRASKA

CITY           SKY/WX    TMP DP  RH WIND       PRES   REMARKS
NORTH PLATTE   CLEAR     40  36  86 CALM      30.18S
6HR MIN TEMP:  40; 6HR MAX TEMP:  56;

IMPERIAL       CLEAR     40  37  89 SE3       30.18S
6HR MIN TEMP:  39; 6HR MAX TEMP:  55;

LEXINGTON      CLEAR     40  37  87 CALM      30.19R
MCCOOK         CLEAR     42  35  76 CALM      30.18S
6HR MIN TEMP:  39; 6HR MAX TEMP:  59;

OGALLALA       CLEAR     40  36  83 CALM      30.18S
$$

NEZ005>010-023>029-035>040-094-230700-
NORTH CENTRAL NEBRASKA

CITY           SKY/WX    TMP DP  RH WIND       PRES   REMARKS
VALENTINE      CLEAR     45  38  76 SW10      30.17R
6HR MIN TEMP:  44; 6HR MAX TEMP:  62;

AINSWORTH      CLEAR     40  37  90 SW5       30.17S
BROKEN BOW     CLEAR     36  33  89 CALM      30.18R
6HR MIN TEMP:  35; 6HR MAX TEMP:  60;

O`NEILL        PTCLDY    44  36  71 E3        30.18S
ORD            CLEAR     37  34  89 NW5       30.17S WCI  33
6HR MIN TEMP:  36; 6HR MAX TEMP:  62;

THEDFORD       CLEAR     45  38  78 S7        30.19S
$$

NEZ041-046>049-061>064-073>077-083>087-230700-
SOUTH CENTRAL NEBRASKA

CITY           SKY/WX    TMP DP  RH WIND       PRES   REMARKS
GRAND ISLAND   CLOUDY    52  43  71 CALM      30.18R
6HR MIN TEMP:  52; 6HR MAX TEMP:  63;

AURORA         CLOUDY    52  40  65 N3        30.17S
HASTINGS       CLOUDY    52  44  74 CALM      30.17S
6HR MIN TEMP:  51; 6HR MAX TEMP:  61;

HEBRON         CLEAR     48  39  69 CALM      30.15S
HOLDREGE       CLOUDY    51  40  64 CALM      30.17S
KEARNEY        CLOUDY    51  41  68 NW5       30.18S
YORK             N/A     50  36  57 CALM      30.17S
$$

NEZ011>018-030>034-042>045-230700-
NORTHEAST NEBRASKA

CITY           SKY/WX    TMP DP  RH WIND       PRES   REMARKS
NORFOLK        CLOUDY    48  31  51 E5        30.17F
6HR MIN TEMP:  47; 6HR MAX TEMP:  65;

ALBION         CLOUDY    52  40  62 CALM      30.18S
BLAIR          CLEAR     49  30  46 NE9       30.17S
COLUMBUS       CLOUDY    48  34  58 E6        30.18S
FREMONT        CLEAR     45  32  60 CALM      30.18S
TEKAMAH        CLEAR     40  32  73 N9        30.19R WCI  34
6HR MIN TEMP:  39; 6HR MAX TEMP:  67;

WAYNE          CLEAR     42  41  97 CALM      30.19S
$$

NEZ050>053-065>068-078-088>093-230700-
SOUTHEAST NEBRASKA

CITY           SKY/WX    TMP DP  RH WIND       PRES   REMARKS
LINCOLN        CLEAR     43  32  65 N5        30.17S
6HR MIN TEMP:  43; 6HR MAX TEMP:  66;

OMAHA EPPLEY   CLEAR     46  30  53 NW6       30.17S
6HR MIN TEMP:  46; 6HR MAX TEMP:  68;

BEATRICE       CLEAR     49  35  58 NE6       30.15R
FALLS CITY     MOCLDY    50  38  63 CALM      30.13R
6HR MIN TEMP:  49; 6HR MAX TEMP:  67;

NEBRASKA CITY  CLEAR     49  32  51 N5        30.16R
PLATTSMOUTH    CLEAR     51  28  41 NE6       30.16S
$$

NEZ044-045-051>053-067-230700-
OMAHA AREA

CITY           SKY/WX    TMP DP  RH WIND       PRES   REMARKS
OMAHA EPPLEY   CLEAR     46  30  53 NW6       30.17S
6HR MIN TEMP:  46; 6HR MAX TEMP:  68;

BLAIR          CLEAR     49  30  46 NE9       30.17S
FREMONT        CLEAR     45  32  60 CALM      30.18S
MILLARD        CLEAR     51  31  46 CALM      30.17S
PLATTSMOUTH    CLEAR     51  28  41 NE6       30.16S
WAHOO          FAIR      44  28  53 N7        30.17S
$$




USA.gov is the U.S. government's official web portal to all federal, state and local government web resources and services.